This is the latest recevied weather packets stored in our database for station/object OM8AKX-12. If no packets are shown the sender has not sent any weather packets the latest 10 day(s).
| Time | Temp. | Humidity | Pressure | Rain* | Wind** | Luminosity | Snow |
|---|---|---|---|---|---|---|---|
| 1787565958 | 27.22° C | 26% | 1015.7 hPa | - | - | - | - |
| 1787565058 | 26.11° C | 29% | 1015.9 hPa | - | - | - | - |
| 1787564158 | 25° C | 31% | 1016 hPa | - | - | - | - |
| 1787563258 | 24.44° C | 31% | 1016.1 hPa | - | - | - | - |
| 1787562358 | 23.33° C | 32% | 1016.3 hPa | - | - | - | - |
| 1787561458 | 23.33° C | 33% | 1016.3 hPa | - | - | - | - |
| 1787560557 | 23.89° C | 34% | 1016.4 hPa | - | - | - | - |
| 1787559663 | 23.33° C | 37% | 1016.5 hPa | - | - | - | - |
| 1787558757 | 22.22° C | 38% | 1016.7 hPa | - | - | - | - |
| 1787556958 | 21.11° C | 44% | 1016.7 hPa | - | - | - | - |
| 1787556057 | 20.56° C | 47% | 1016.7 hPa | - | - | - | - |
| 1787555157 | 19.44° C | 52% | 1016.9 hPa | - | - | - | - |
| 1787554257 | 18.89° C | 58% | 1017.1 hPa | - | - | - | - |
| 1787553357 | 17.78° C | 61% | 1017.1 hPa | - | - | - | - |
| 1787552457 | 16.67° C | 64% | 1017.2 hPa | - | - | - | - |
| 1787551557 | 16.11° C | 70% | 1017.3 hPa | - | - | - | - |
| 1787550657 | 15° C | 72% | 1017.2 hPa | - | - | - | - |
| 1787549757 | 14.44° C | 74% | 1017.1 hPa | - | - | - | - |
| 1787548857 | 13.89° C | 78% | 1017.1 hPa | - | - | - | - |
| 1787547957 | 12.78° C | 80% | 1017.1 hPa | - | - | - | - |
| 1787547057 | 12.22° C | 83% | 1017 hPa | - | - | - | - |
| 1787546156 | 11.67° C | 87% | 1017 hPa | - | - | - | - |
| 1787545256 | 10.56° C | 90% | 1017 hPa | - | - | - | - |
| 1787544356 | 10° C | 89% | 1016.9 hPa | - | - | - | - |
| 1787543456 | 10.56° C | 87% | 1016.9 hPa | - | - | - | - |
* Rain since midnight (hover to see other rain measurements)
** Current wind speed in m/s (hover to see current wind gust speed)